sat.trackr.live / text

‹ back to catalog

STARLINK-34355

NORAD 64306 · 2025-123R

PAYLOAD ACTIVE UNKNOWN

§ Identity

Operator
Country
US
Launch date
2025-06-08
Launch site
AFWTR
Launch vehicle
Mass (kg)
RCS (m²)

Purposes: comms

External: N2YO · Heavens-Above · Gunter

§ Orbital elements

Epoch: 2026-05-24T23:52:12.526752Z

Period
96.11 min
Inclination
70.0023°
Eccentricity
0.0002838
Mean motion
14.98338198 rev/d
Perigee alt
570.1 km
Apogee alt
574.0 km
Semi-major
6,950.2 km
B*
3.0909e-4
RAAN
2.2474°
Arg perigee
267.2910°
Mean anomaly
92.7924°
Rev number
5,304

§ Raw data

STARLINK-343551 64306U 25123R   26144.99458943  .00003598  00000+0  30909-3 0  99982 64306  70.0023   2.2474 0002838 267.2910  92.7924 14.98338198 53049

JSON: /api/v1/satellites/64306 · /tle

For live sub-satellite position, see the globe view (requires WebGL).

§ Visibility from observer

Set your observer location to see the next 7 days of passes ≥ 10°. The values pass through the URL so the page stays shareable.

No JS? Fill the form by hand. The geolocation button needs JavaScript.